Date String (YYYY-MM-DD hh:mm:ss) UTC,Instrument flags,Ambient pressure (hPa),Sample flow (lpm),Bypass flow (lpm),Sample temperature (°C),Ambient temperature (°C),ASC tube jacket temperature (°C),LED temperature (°C),Box temperature (°C),Sample RH (%),Span deviation,Mass concentration (μg/m³),Mass concentration (μg/m³),Mass concentration (μg/m³)
DateTimeUTC,F1_M11,P_M11,Q1_M11,Q2_M11,T1_M11,T2_M11,T3_M11,T4_M11,T5_M11,U1_M11,ZSPAN_M11,X0_M11,X2_M11,X1_M11
2021-11-21 10:00:00,,0834.1,5.00,0.00,23.3,22.4,00.0,32.3,25.0,14.6,0000.0,0008.46,0004.15,0003.59
2021-11-21 10:01:00,,0834.1,5.02,0.00,23.3,22.4,00.0,32.3,25.0,14.7,0000.0,0009.17,0004.19,0003.62
2021-11-21 10:02:00,,0834.1,4.99,0.00,23.3,22.4,00.0,32.3,25.1,14.7,0000.0,0009.23,0004.18,0003.61
2021-11-21 10:03:00,,0834.1,5.01,0.00,23.3,22.5,00.0,32.3,25.1,14.4,0000.0,0009.32,0004.08,0003.54
2021-11-21 10:04:00,,0834.1,4.99,0.00,23.3,22.5,00.0,32.3,25.0,14.5,0000.0,0009.70,0003.99,0003.47
2021-11-21 10:05:00,,0834.1,5.01,0.00,23.3,22.5,00.0,32.3,25.1,14.9,0000.0,0009.75,0003.96,0003.44
2021-11-21 10:06:00,,0834.1,5.00,0.00,23.3,22.5,00.0,32.3,25.1,15.4,0000.0,0010.24,0004.00,0003.44
2021-11-21 10:07:00,,0834.1,4.99,0.00,23.3,22.5,00.0,32.3,25.1,15.8,0000.0,0010.05,0004.00,0003.45
2021-11-21 10:08:00,,0834.0,4.99,0.00,23.3,22.5,00.0,32.3,25.1,16.0,0000.0,0009.58,0004.01,0003.46
2021-11-21 10:09:00,,0834.1,5.01,0.00,23.3,22.5,00.0,32.3,25.1,16.3,0000.0,0010.02,0004.10,0003.53
2021-11-21 10:10:00,,0834.1,5.00,0.00,23.3,22.5,00.0,32.3,25.1,16.0,0000.0,0010.35,0004.23,0003.60
2021-11-21 10:11:00,,0834.1,4.99,0.00,23.3,22.5,00.0,32.3,25.0,15.8,0000.0,0010.49,0004.30,0003.68
2021-11-21 10:12:00,,0834.1,5.00,0.00,23.3,22.5,00.0,32.3,25.0,15.1,0000.0,0010.11,0004.33,0003.71
2021-11-21 10:13:00,,0834.0,5.00,0.00,23.3,22.5,00.0,32.3,25.0,13.9,0000.0,0009.94,0004.27,0003.66
2021-11-21 10:14:00,,0834.1,4.99,0.00,23.3,22.4,00.0,32.3,25.0,13.8,0000.0,0009.83,0004.24,0003.64
2021-11-21 10:15:00,,0834.1,5.00,0.00,23.2,22.4,00.0,32.3,25.0,14.1,0000.0,0009.12,0004.22,0003.64
2021-11-21 10:16:00,,0834.1,5.00,0.00,23.2,22.4,00.0,32.3,25.0,14.0,0000.0,0008.92,0004.19,0003.61
2021-11-21 10:17:00,,0834.2,5.00,0.00,23.2,22.4,00.0,32.3,25.0,13.3,0000.0,0008.39,0004.08,0003.52
2021-11-21 10:18:00,,0834.3,4.99,0.00,23.2,22.4,00.0,32.3,25.0,12.5,0000.0,0008.19,0003.90,0003.36
2021-11-21 10:19:00,,0834.2,5.01,0.00,23.2,22.4,00.0,32.3,25.0,12.2,0000.0,0007.96,0003.71,0003.20
2021-11-21 10:20:00,,0834.2,4.99,0.00,23.2,22.3,00.0,32.3,25.0,11.8,0000.0,0007.25,0003.48,0002.90
2021-11-21 10:21:00,,0834.3,5.00,0.00,23.2,22.3,00.0,32.2,24.9,11.6,0000.0,0006.40,0003.24,0002.58
2021-11-21 10:22:00,,0834.3,4.99,0.00,23.2,22.3,00.0,32.2,24.9,11.6,0000.0,0005.58,0002.99,0002.26
2021-11-21 10:23:00,,0834.3,4.99,0.00,23.2,22.3,00.0,32.2,24.9,11.6,0000.0,0004.82,0002.72,0002.01
2021-11-21 10:24:00,,0834.3,5.01,0.00,23.1,22.3,00.0,32.2,24.9,11.8,0000.0,0004.61,0002.60,0001.91
2021-11-21 10:25:00,,0834.3,4.99,0.00,23.1,22.3,00.0,32.2,24.9,11.8,0000.0,0004.47,0002.47,0001.78
2021-11-21 10:26:00,,0834.3,5.02,0.00,23.1,22.2,00.0,32.2,24.9,11.9,0000.0,0004.09,0002.27,0001.62
2021-11-21 10:27:00,,0834.3,4.99,0.00,23.1,22.2,00.0,32.2,24.8,12.0,0000.0,0003.72,0002.04,0001.47
2021-11-21 10:28:00,,0834.3,5.01,0.00,23.1,22.2,00.0,32.2,24.8,12.1,0000.0,0003.37,0001.89,0001.37
2021-11-21 10:29:00,,0834.3,4.99,0.00,23.1,22.2,00.0,32.2,24.8,12.1,0000.0,0003.09,0001.83,0001.35
2021-11-21 10:30:00,,0834.3,5.00,0.00,23.1,22.2,00.0,32.2,24.8,12.2,0000.0,0002.98,0001.79,0001.35
2021-11-21 10:31:00,,0834.3,5.01,0.00,23.1,22.2,00.0,32.2,24.8,12.2,0000.0,0002.86,0001.79,0001.37
2021-11-21 10:32:00,,0834.3,4.99,0.00,23.1,22.2,00.0,32.2,24.8,12.2,0000.0,0002.89,0001.79,0001.38
2021-11-21 10:33:00,,0834.3,5.00,0.00,23.1,22.2,00.0,32.1,24.7,12.4,0000.0,0002.96,0001.82,0001.41
2021-11-21 10:34:00,,0834.3,5.01,0.00,23.0,22.1,00.0,32.1,24.7,12.6,0000.0,0002.97,0001.86,0001.47
2021-11-21 10:35:00,,0834.3,4.99,0.00,23.0,22.1,00.0,32.1,24.7,12.1,0000.0,0003.02,0001.90,0001.50
2021-11-21 10:36:00,,0834.3,5.01,0.00,23.0,22.1,00.0,32.1,24.7,12.2,0000.0,0003.06,0001.92,0001.53
2021-11-21 10:37:00,,0834.3,4.99,0.00,23.0,22.1,00.0,32.1,24.7,13.9,0000.0,0003.87,0002.11,0001.69
2021-11-21 10:38:00,,0834.3,5.00,0.00,23.0,22.1,00.0,32.1,24.7,14.2,0000.0,0004.18,0002.34,0001.90
2021-11-21 10:39:00,,0834.3,5.00,0.00,22.9,22.0,00.0,32.1,24.7,12.5,0000.0,0004.25,0002.38,0001.93
2021-11-21 10:40:00,,0834.3,5.00,0.00,22.9,22.0,00.0,32.1,24.7,13.3,0000.0,0004.43,0002.49,0002.02
2021-11-21 10:41:00,,0834.3,4.99,0.00,22.9,22.0,00.0,32.0,24.6,12.9,0000.0,0004.54,0002.57,0002.09
2021-11-21 10:42:00,,0834.3,5.02,0.00,22.9,22.0,00.0,32.0,24.6,11.8,0000.0,0004.45,0002.54,0002.08
2021-11-21 10:43:00,,0834.3,4.99,0.00,22.9,22.0,00.0,32.0,24.6,11.4,0000.0,0004.33,0002.49,0002.05
2021-11-21 10:44:00,,0834.3,5.00,0.00,22.9,22.0,00.0,32.0,24.6,11.2,0000.0,0004.14,0002.40,0002.00
2021-11-21 10:45:00,,0834.3,5.00,0.00,22.9,22.0,00.0,32.0,24.6,11.0,0000.0,0003.96,0002.29,0001.91
2021-11-21 10:46:00,,0834.3,5.00,0.00,22.9,22.0,00.0,32.0,24.6,11.0,0000.0,0003.74,0002.18,0001.84
2021-11-21 10:47:00,,0834.3,5.01,0.00,22.9,21.9,00.0,32.0,24.6,11.1,0000.0,0003.55,0002.09,0001.77
2021-11-21 10:48:00,,0834.3,5.00,0.00,22.8,21.9,00.0,32.0,24.5,11.0,0000.0,0002.58,0001.84,0001.58
2021-11-21 10:49:00,,0834.3,4.99,0.00,22.8,21.9,00.0,32.0,24.5,10.8,0000.0,0002.59,0001.54,0001.31
2021-11-21 10:50:00,,0834.3,5.01,0.00,22.8,21.9,00.0,31.9,24.5,10.7,0000.0,0002.89,0001.41,0001.20
2021-11-21 10:51:00,,0834.3,5.01,0.00,22.8,21.9,00.0,31.9,24.5,10.7,0000.0,0002.60,0001.21,0001.05
2021-11-21 10:52:00,,0834.3,4.99,0.00,22.8,21.9,00.0,31.9,24.5,10.6,0000.0,0002.37,0001.05,0000.91
2021-11-21 10:53:00,,0834.3,5.00,0.00,22.8,21.9,00.0,31.9,24.5,10.5,0000.0,0002.27,0000.97,0000.84
2021-11-21 10:54:00,,0834.3,5.02,0.00,22.8,21.9,00.0,31.9,24.5,10.6,0000.0,0002.26,0000.94,0000.80
2021-11-21 10:55:00,,0834.3,4.98,0.00,22.8,21.9,00.0,31.9,24.5,10.6,0000.0,0002.22,0000.92,0000.78
2021-11-21 10:56:00,,0834.3,5.01,0.00,22.8,21.9,00.0,31.9,24.5,10.5,0000.0,0002.13,0000.88,0000.76
2021-11-21 10:57:00,,0834.3,4.99,0.00,22.8,21.9,00.0,31.9,24.4,10.5,0000.0,0002.09,0000.88,0000.74
2021-11-21 10:58:00,,0834.3,5.00,0.00,22.8,21.8,00.0,31.9,24.4,10.4,0000.0,0002.03,0000.83,0000.72
2021-11-21 10:59:00,,0834.3,5.00,0.00,22.8,21.8,00.0,31.8,24.4,10.4,0000.0,0002.02,0000.82,0000.70
